[[{"header":{"parameterUnit":"m.s-1","parameterCategory":1,"la1":30.2991,"la2":30.254,"lo1":-89.0895,"lo2":-89.0444,"dy":0.0017,"dx":0.0017,"nx":28,"ny":28,"refTime":"2024-04-12T09:00:00:Z","depth":0,"parameterNumber":2,"parameterNumberName":"U-component_of_WINDS"},"data":[0,0,0,0,0,0,0,0,0,0,0,0,0,0,0,0,0,0,0,0,0,0,0,0,0,0,0,0,0,0,0,0,0,0,0,0,0,0,0,0,0,0,0,0,0,0,0,0,0,0,0,0,0,0,0,0,0,0,2.9096,2.9098,0,2.9286,2.9288,2.929,2.928,2.9278,2.9275,2.9272,2.9471,2.9479,2.9486,0,0,0,0,0,0,0,0,0,0,0,0,0,2.8727,2.8733,2.9095,2.9098,2.91,2.9286,2.9288,2.9291,2.9281,2.9277,2.9274,2.9271,2.9468,2.9478,2.9487,0,0,0,0,0,0,0,0,0,0,0,0,0,2.8899,2.8736,2.9095,2.9117,2.9121,2.9285,2.9288,2.9292,2.9282,2.9277,2.9273,2.9269,2.9465,2.9477,2.9488,2.9643,0,0,2.9524,2.9529,0,0,0,0,0,0,0,0,2.8889,2.8913,2.9112,2.9116,2.9121,2.9255,2.9231,2.941,2.9283,2.9221,2.9272,2.9267,2.9403,2.9419,2.9464,2.9653,2.9661,2.9525,2.9533,2.9538,2.9541,0,0,0,0,0,0,0,2.8877,2.8904,2.9171,2.9115,2.912,2.9119,2.9139,2.9265,2.9333,2.9226,2.9226,2.9248,2.9404,2.9453,2.9469,2.9664,2.9525,2.9536,2.9543,2.9547,2.9991,2.9995,0,0,0,0,0,0,2.886,2.8894,2.9165,2.9177,2.8992,2.9129,2.9151,2.9216,2.9331,2.9345,2.9251,2.9247,2.9435,2.9455,2.9476,2.9665,2.9537,2.9549,2.9555,2.9986,2.9992,2.9997,0,0,0,0,0,0,2.8852,2.8884,2.9157,2.9036,2.907,2.914,2.9213,2.9222,2.9271,2.935,2.9363,2.9288,2.9432,2.9459,2.9602,2.9672,2.9554,2.9565,2.998,2.9988,2.9994,3.0046,0,0,0,0,0,0,2.8842,2.8881,2.894,2.9037,2.9077,2.9279,2.9217,2.9229,2.929,2.9286,2.9388,2.9401,2.9431,2.9584,2.9614,2.9686,2.9574,2.9974,2.9984,2.9992,3.0038,3.0053,3.0067,0,0,0,0,0,2.8828,2.8948,2.8943,2.8976,2.9151,2.9283,2.9306,2.9337,2.9296,2.9356,2.9408,2.9398,2.966,2.9599,2.9632,2.9709,2.997,2.9981,2.9991,3.0031,3.005,3.0067,0,0,0,0,0,0,2.8858,2.8961,2.8957,2.911,2.9188,2.9281,2.9358,2.9356,2.9447,2.944,2.9476,2.9499,2.9642,2.969,2.962,2.9866,2.981,2.9828,2.9829,2.9848,2.9862,2.9848,2.9584,0,0,0,0,0,2.8882,2.898,2.9064,2.9192,2.9231,2.9288,2.9346,2.9363,2.9445,2.9478,2.954,2.9622,2.9722,2.9788,2.9885,3.0045,3.0068,3.0114,3.0129,3.014,3.0155,3.0245,3.0267,3.0032,3.0032,3.0031,0,0,2.8934,2.9002,2.9061,2.92,2.9262,2.9363,2.9315,2.9424,2.95,2.9495,2.9633,2.9682,2.9775,2.9927,2.9997,2.9972,3.0225,3.0154,3.0162,3.0171,3.0258,3.028,3.03,3.0039,3.0038,3.0036,0,0,2.9079,2.914,2.9253,2.9316,2.941,2.9448,2.9475,2.9569,2.96,2.9739,2.9738,2.9829,3.0002,3.0068,3.0125,3.0296,3.0291,3.0327,3.0403,3.0489,3.0508,3.0524,3.0586,3.0608,3.0341,3.0342,3.0342,0,2.9132,2.9283,2.9312,2.9422,2.9483,2.9483,2.9598,2.9659,2.978,2.9823,2.9792,3.0009,3.0071,3.024,3.0281,3.0327,3.036,3.0315,3.0502,3.0519,3.0535,3.0595,3.0618,3.0345,3.0345,3.0345,3.0344,0,2.9343,2.9448,2.9528,2.9644,2.9715,2.9827,2.9874,2.9943,2.9954,2.9995,3.0137,3.0212,3.0324,3.0366,3.0378,3.0536,3.0517,3.0494,3.0439,3.0561,3.0617,3.064,3.0351,3.0349,3.0348,3.0347,0,0,2.9513,2.9643,2.9672,2.9725,2.9829,2.9912,3.0024,3.0133,3.0191,3.0275,3.0372,3.0518,3.0497,3.0561,3.0581,3.0657,3.0789,3.0625,3.0628,3.0653,3.0969,3.0985,3.1011,3.0786,3.079,3.0794,3.0961,0,2.9669,2.9867,2.9897,3.0072,3.017,3.0171,3.027,3.0345,3.0387,3.0477,3.0523,3.0626,3.059,3.0629,3.0704,3.0757,3.0853,3.0745,3.0877,3.0881,3.0853,3.1041,3.1059,3.1213,3.0983,3.0987,3.099,0,2.9878,2.9966,3.0151,3.0242,3.0284,3.0372,3.0474,3.056,3.0646,3.0671,3.0742,3.0754,3.0872,3.0811,3.0976,3.0902,3.0958,3.0992,3.0999,3.1012,3.0943,3.106,3.1262,3.1286,3.1025,3.1022,3.1019,0,2.9983,3.0149,3.0281,3.0326,3.0436,3.0497,3.0546,3.0628,3.0691,3.0782,3.0824,3.0927,3.0984,3.1064,3.1103,3.1055,3.1266,3.1208,3.1291,3.129,3.1335,3.1331,3.155,3.137,3.137,3.137,3.1369,0,3.0155,3.0268,3.033,3.0411,3.0538,3.0572,3.0697,3.0745,3.0817,3.0909,3.0917,3.1003,3.1049,3.1143,3.1175,3.1306,3.1332,3.1356,3.1363,3.1356,3.1353,3.1393,3.1383,3.1376,3.1374,3.1373,3.1372,0,3.0294,3.034,3.0484,3.0576,3.0601,3.0691,3.077,3.085,3.0891,3.1007,3.1036,3.1101,3.1211,3.1258,3.1394,3.1416,3.1567,3.1566,3.1537,3.154,3.162,3.1611,3.1871,3.1908,3.1704,3.1706,3.1708,0,3.0401,3.0488,3.0589,3.065,3.07,3.0799,3.0863,3.0901,3.0968,3.1073,3.114,3.125,3.134,3.1517,3.1577,3.1682,3.1684,3.1768,3.17,3.1689,3.1686,3.168,3.1689,3.178,3.1782,3.1784,3.1785,0,3.0586,3.0604,3.0696,3.0797,3.0874,3.0955,3.1035,3.1085,3.1135,3.1211,3.1323,3.1392,3.1531,3.1641,3.1749,3.1801,3.1802,3.1806,3.1831,3.1824,3.1804,3.1816,3.1571,3.18,3.1798,3.1797,3.1797,3.1796,3.0713,3.079,3.0873,3.0976,3.1039,3.1113,3.1193,3.1243,3.1337,3.1451,3.1468,3.1589,3.1674,3.1819,3.1875,3.197,3.195,3.1985,3.1994,3.2003,3.2008,3.1788,3.199,3.199,3.199,3.1989,3.1989,0,3.0898,3.0951,3.1045,3.1156,3.1237,3.123,3.1318,3.1387,3.1492,3.157,3.1658,3.1788,3.1894,3.1963,3.2071,3.2134,3.2138,3.2161,3.2157,3.2169,3.202,3.1988,3.2157,3.2157,3.2157,3.2157,3.2157,3.2157,3.1004,3.1134,3.1162,3.1325,3.1378,3.1495,3.1546,3.1615,3.1677,3.1821,3.1909,3.1952,3.2028,3.2141,3.2239,3.2257,3.2296,3.2321,3.2338,3.2197,3.218,3.2163,3.2133,3.233,3.233,3.2479,3.2481,3.2482]},{"header":{"parameterUnit":"m.s-1","parameterCategory":1,"la1":30.2991,"la2":30.254,"lo1":-89.0895,"lo2":-89.0444,"dy":0.0017,"dx":0.0017,"nx":28,"ny":28,"refTime":"2024-04-12T09:00:00:Z","depth":0,"parameterNumber":3,"parameterNumberName":"V-component_of_WINDS"},"data":[0,0,0,0,0,0,0,0,0,0,0,0,0,0,0,0,0,0,0,0,0,0,0,0,0,0,0,0,0,0,0,0,0,0,0,0,0,0,0,0,0,0,0,0,0,0,0,0,0,0,0,0,0,0,0,0,0,0,-0.9876,-0.9876,0,-0.9871,-0.9871,-0.9871,-0.9867,-0.9867,-0.9867,-0.9867,-0.9862,-0.9862,-0.9862,0,0,0,0,0,0,0,0,0,0,0,0,0,-0.988,-0.988,-0.9876,-0.9876,-0.9876,-0.9871,-0.9871,-0.9871,-0.9867,-0.9867,-0.9867,-0.9867,-0.9862,-0.9862,-0.9862,0,0,0,0,0,0,0,0,0,0,0,0,0,-0.9877,-0.988,-0.9876,-0.9873,-0.9873,-0.9871,-0.9871,-0.9871,-0.9867,-0.9867,-0.9867,-0.9867,-0.9862,-0.9862,-0.9862,-0.9862,0,0,-0.9861,-0.9861,0,0,0,0,0,0,0,0,-0.9877,-0.9877,-0.9873,-0.9873,-0.9873,-0.9869,-0.9871,-0.9868,-0.9867,-0.9869,-0.9867,-0.9867,-0.9864,-0.9864,-0.9863,-0.9862,-0.9862,-0.9861,-0.9861,-0.9861,-0.9861,0,0,0,0,0,0,0,-0.9877,-0.9877,-0.9874,-0.9873,-0.9873,-0.9872,-0.9871,-0.987,-0.9867,-0.9869,-0.9869,-0.9868,-0.9864,-0.9863,-0.9863,-0.9861,-0.9861,-0.9861,-0.9861,-0.9861,-0.9859,-0.9859,0,0,0,0,0,0,-0.9878,-0.9877,-0.9874,-0.9874,-0.9875,-0.9872,-0.9871,-0.9871,-0.9867,-0.9867,-0.9868,-0.9868,-0.9864,-0.9863,-0.9863,-0.9862,-0.9861,-0.9861,-0.9861,-0.9859,-0.9859,-0.9859,0,0,0,0,0,0,-0.9878,-0.9878,-0.9874,-0.9875,-0.9875,-0.9872,-0.9871,-0.9871,-0.987,-0.9867,-0.9866,-0.9868,-0.9864,-0.9863,-0.9862,-0.9862,-0.9861,-0.9861,-0.9859,-0.9859,-0.9859,-0.9862,0,0,0,0,0,0,-0.9878,-0.9878,-0.9878,-0.9875,-0.9875,-0.9874,-0.9871,-0.9871,-0.987,-0.9869,-0.9866,-0.9866,-0.9864,-0.9862,-0.9862,-0.9862,-0.986,-0.9859,-0.9859,-0.9859,-0.9862,-0.9862,-0.9862,0,0,0,0,0,-0.9878,-0.988,-0.9878,-0.9878,-0.9875,-0.9874,-0.9873,-0.9871,-0.987,-0.987,-0.9868,-0.9866,-0.9862,-0.9862,-0.9862,-0.9862,-0.9859,-0.9859,-0.9859,-0.9862,-0.9862,-0.9862,0,0,0,0,0,0,-0.9883,-0.9879,-0.9878,-0.9878,-0.9876,-0.9873,-0.9873,-0.9871,-0.987,-0.987,-0.9866,-0.9866,-0.9865,-0.9863,-0.9863,-0.9861,-0.986,-0.986,-0.9863,-0.9863,-0.9863,-0.9863,-0.986,0,0,0,0,0,-0.9884,-0.9883,-0.988,-0.9881,-0.988,-0.9877,-0.9876,-0.9874,-0.9872,-0.9871,-0.9869,-0.9867,-0.9865,-0.9864,-0.9862,-0.9862,-0.986,-0.9861,-0.9862,-0.9862,-0.9862,-0.986,-0.9861,-0.9859,-0.9859,-0.9859,0,0,-0.9886,-0.9884,-0.9884,-0.9881,-0.988,-0.9878,-0.9876,-0.9875,-0.9874,-0.9871,-0.987,-0.9868,-0.9865,-0.9864,-0.9863,-0.9862,-0.9862,-0.9862,-0.9862,-0.9862,-0.9861,-0.9861,-0.9861,-0.9859,-0.9859,-0.9859,0,0,-0.9889,-0.9888,-0.9888,-0.9886,-0.9883,-0.9881,-0.9881,-0.9878,-0.9876,-0.9875,-0.9872,-0.9871,-0.9868,-0.9866,-0.9864,-0.9866,-0.9864,-0.9865,-0.9866,-0.9865,-0.9865,-0.9865,-0.9865,-0.9865,-0.9865,-0.9865,-0.9865,0,-0.9892,-0.9891,-0.9888,-0.9887,-0.9886,-0.9882,-0.9882,-0.988,-0.9877,-0.9876,-0.9875,-0.9871,-0.9869,-0.9867,-0.9867,-0.9866,-0.9865,-0.9865,-0.9866,-0.9866,-0.9866,-0.9865,-0.9865,-0.9865,-0.9865,-0.9865,-0.9865,0,-0.9894,-0.9893,-0.9893,-0.989,-0.9888,-0.9888,-0.9884,-0.9883,-0.9881,-0.9879,-0.9877,-0.9874,-0.9871,-0.9871,-0.9869,-0.9868,-0.9868,-0.9866,-0.9865,-0.9866,-0.9866,-0.9866,-0.9865,-0.9865,-0.9865,-0.9865,0,0,-0.9901,-0.9895,-0.9895,-0.9893,-0.9889,-0.9888,-0.9887,-0.9884,-0.9883,-0.9881,-0.9879,-0.9876,-0.9875,-0.9873,-0.9871,-0.987,-0.987,-0.9868,-0.9868,-0.9868,-0.9868,-0.9868,-0.9868,-0.9868,-0.9868,-0.9868,-0.9868,0,-0.9903,-0.99,-0.9897,-0.9896,-0.9894,-0.989,-0.9889,-0.9886,-0.9884,-0.9882,-0.9879,-0.9877,-0.9875,-0.9874,-0.9873,-0.987,-0.9869,-0.987,-0.9866,-0.9866,-0.9867,-0.9868,-0.9869,-0.9869,-0.9867,-0.9867,-0.9867,0,-0.9905,-0.9903,-0.9901,-0.9896,-0.9895,-0.9894,-0.9891,-0.9889,-0.9886,-0.9884,-0.9882,-0.9879,-0.9877,-0.9875,-0.9872,-0.9872,-0.9871,-0.9869,-0.9869,-0.9868,-0.9867,-0.9867,-0.9869,-0.9869,-0.9867,-0.9867,-0.9867,0,-0.9909,-0.9905,-0.9903,-0.9902,-0.9897,-0.9896,-0.9894,-0.989,-0.9888,-0.9885,-0.9884,-0.9881,-0.9879,-0.9876,-0.9872,-0.9872,-0.9869,-0.9868,-0.9867,-0.9867,-0.9867,-0.9867,-0.9867,-0.9866,-0.9866,-0.9866,-0.9866,0,-0.9912,-0.991,-0.9905,-0.9904,-0.9902,-0.9898,-0.9897,-0.9894,-0.9891,-0.9889,-0.9885,-0.9883,-0.9879,-0.9876,-0.9873,-0.987,-0.987,-0.9868,-0.9867,-0.9868,-0.9868,-0.9867,-0.9866,-0.9866,-0.9866,-0.9866,-0.9866,0,-0.9916,-0.9912,-0.991,-0.9905,-0.9904,-0.9902,-0.9898,-0.9896,-0.9894,-0.9891,-0.989,-0.9885,-0.9882,-0.9878,-0.9873,-0.9871,-0.9868,-0.9867,-0.987,-0.9869,-0.9868,-0.9868,-0.9868,-0.9867,-0.9867,-0.9867,-0.9867,0,-0.9918,-0.9917,-0.9911,-0.9909,-0.9907,-0.9905,-0.9903,-0.9898,-0.9896,-0.9892,-0.989,-0.9887,-0.9884,-0.9878,-0.9874,-0.987,-0.9869,-0.9869,-0.9868,-0.9869,-0.9868,-0.9868,-0.9868,-0.9869,-0.9869,-0.9869,-0.9869,0,-0.9921,-0.9919,-0.9916,-0.9912,-0.991,-0.9907,-0.9903,-0.9902,-0.9897,-0.9895,-0.9891,-0.9889,-0.9884,-0.988,-0.9875,-0.9872,-0.987,-0.987,-0.9869,-0.987,-0.9871,-0.987,-0.987,-0.987,-0.987,-0.987,-0.987,-0.987,-0.9923,-0.9922,-0.9918,-0.9914,-0.9911,-0.9908,-0.9906,-0.9903,-0.99,-0.9895,-0.9893,-0.9889,-0.9884,-0.9878,-0.9875,-0.9872,-0.9871,-0.9871,-0.9871,-0.987,-0.987,-0.9872,-0.9871,-0.9871,-0.9871,-0.9871,-0.9871,0,-0.9926,-0.9923,-0.992,-0.9915,-0.9912,-0.991,-0.9906,-0.9904,-0.99,-0.9896,-0.9893,-0.9888,-0.9884,-0.988,-0.9875,-0.9873,-0.9872,-0.9872,-0.9872,-0.9872,-0.9872,-0.9872,-0.9873,-0.9873,-0.9873,-0.9873,-0.9873,-0.9873,-0.9927,-0.9924,-0.9921,-0.9916,-0.9913,-0.9909,-0.9907,-0.9904,-0.9901,-0.9896,-0.9892,-0.9889,-0.9885,-0.988,-0.9876,-0.9874,-0.9873,-0.9873,-0.9872,-0.9872,-0.9872,-0.9872,-0.9872,-0.9873,-0.9873,-0.9872,-0.9872,-0.9872]}]]